Theta_e
315 315 316 321 327 328 330 330 323 327 328 324 323 333 344 342 344 346 343 343 344 347 349 348 342 343 342 339 340 335 329 325 328 334 332 327 329 324 323 326 329 333 336 334 333 329 327 323 322
315 315 319 322 326 329 329 327 327 325 323 322 323 329 336 340 345 347 345 344 344 345 346 345 342 343 341 339 338 333 329 323 324 328 326 326 330 326 322 326 330 331 331 331 330 329 325 323 322
315 316 322 322 323 326 328 325 323 322 321 321 323 323 329 335 335 349 351 344 345 345 344 343 342 342 340 337 336 332 328 321 320 323 325 325 329 327 322 326 329 329 331 330 329 326 324 323 323
315 318 320 320 322 323 325 322 320 321 322 320 319 324 328 329 334 335 352 347 346 345 345 343 342 341 339 336 334 331 328 320 319 321 323 325 330 326 322 326 328 328 327 327 326 323 323 323 323
318 319 319 320 321 319 320 319 319 322 321 321 319 321 322 329 323 340 354 346 348 345 345 344 343 341 339 336 334 331 329 320 319 320 322 326 329 326 322 325 327 328 327 328 326 323 323 324 324
322 319 318 317 319 319 320 319 320 321 321 322 320 319 325 337 319 323 354 349 350 345 345 344 343 342 339 336 333 331 329 321 319 320 322 327 329 326 322 325 327 328 327 328 323 323 323 323 327
323 321 319 320 320 321 321 318 319 319 319 320 317 320 320 324 319 324 351 352 350 347 345 343 343 343 340 337 334 333 331 324 319 320 324 328 329 326 323 325 327 327 329 325 322 322 322 323 324
320 321 322 321 321 321 320 317 316 317 318 317 316 320 320 318 317 323 329 353 351 348 346 343 343 343 340 338 335 333 333 329 320 320 324 328 329 325 323 325 327 328 330 323 322 322 322 323 323
316 320 320 320 321 320 316 316 315 315 316 316 317 317 317 316 322 327 332 348 352 350 346 344 343 342 341 338 336 334 334 333 326 320 323 327 328 324 327 329 328 332 325 323 322 321 321 322 323
316 317 317 317 316 316 314 314 314 315 316 316 316 316 316 316 316 328 340 334 350 351 346 345 342 340 340 338 336 335 335 334 331 322 321 325 326 325 329 330 331 328 324 322 321 320 320 321 321
313 315 314 314 313 312 313 314 313 315 316 316 316 316 316 315 316 316 320 337 330 349 349 345 343 340 339 339 337 336 335 335 333 328 321 321 323 325 327 326 325 323 323 322 321 320 320 321 323
314 313 313 313 312 311 313 312 314 314 315 315 315 314 314 314 315 315 315 316 326 323 347 348 345 341 340 340 337 336 336 335 334 331 325 321 323 324 325 324 324 323 322 322 321 320 327 330 334
313 312 312 312 312 311 311 311 313 312 312 313 313 313 313 314 314 314 315 315 315 315 323 326 339 345 340 340 339 337 336 334 334 333 329 323 321 322 324 324 324 323 322 322 320 323 332 335 338
311 312 312 312 312 311 311 312 311 313 312 313 313 313 314 314 314 314 314 314 314 315 316 318 320 335 344 341 339 337 336 336 335 334 331 328 323 321 321 323 324 323 322 322 321 323 335 338 340
312 312 312 311 312 313 311 313 313 313 314 314 313 314 314 314 313 313 313 313 314 315 316 316 316 324 338 345 343 340 337 337 336 334 333 329 326 323 321 322 323 323 322 322 322 328 334 339 341
312 311 313 313 312 313 312 314 314 314 314 314 314 314 314 314 314 314 313 313 313 314 316 316 317 317 324 333 348 344 340 337 337 336 335 331 328 325 323 322 323 323 323 322 321 332 335 339 341
311 312 312 312 312 313 314 315 315 314 314 314 315 314 315 314 315 314 313 313 313 313 315 315 316 316 320 321 337 349 345 341 338 337 336 334 331 327 324 322 321 324 324 323 325 333 338 338 340
313 313 312 313 313 315 315 315 316 315 314 314 315 315 315 315 315 314 313 313 312 313 314 315 315 315 320 328 333 342 347 344 341 339 337 335 334 330 326 323 321 324 324 324 327 337 340 341 342
311 312 314 315 315 315 316 316 317 316 315 315 315 315 315 315 315 314 313 313 312 313 314 315 315 315 315 334 333 336 340 341 346 342 338 336 335 333 328 324 321 323 324 325 329 338 340 341 342
312 314 315 315 315 315 316 317 317 317 316 316 316 316 315 315 315 314 313 314 313 313 313 315 315 315 317 317 323 325 330 343 343 347 341 338 336 335 332 326 322 321 330 330 329 337 339 340 342
315 315 315 315 315 315 316 317 317 316 316 315 315 315 315 315 315 315 315 314 314 313 314 314 314 315 315 319 324 332 346 346 347 346 345 339 337 336 334 328 323 321 333 333 337 339 339 341 343
314 314 314 315 316 317 314 318 316 316 316 315 315 315 315 315 315 315 315 313 314 313 313 314 314 314 315 315 325 336 336 343 341 345 348 342 338 337 336 331 324 323 334 337 339 340 341 342 344
315 313 314 314 316 316 315 316 317 316 317 317 316 315 315 315 314 316 316 316 315 314 314 314 314 314 315 315 318 327 340 341 340 343 345 344 338 337 336 334 327 323 335 339 340 341 343 344 345
313 314 314 314 314 316 315 316 316 316 316 316 316 315 315 314 315 316 315 315 316 317 317 316 314 315 315 315 318 323 328 338 343 343 344 345 340 337 336 336 333 323 333 339 342 341 341 342 343
314 315 318 318 318 318 315 316 316 316 316 316 316 315 314 314 315 316 317 316 316 316 316 317 317 313 315 316 319 323 324 333 338 341 343 343 340 337 336 336 335 326 327 340 341 341 341 340 341
314 314 318 319 317 317 315 316 316 315 315 314 314 314 315 315 315 315 315 316 315 314 315 315 316 317 316 315 319 319 325 333 333 341 343 343 340 338 337 338 337 331 325 341 339 341 340 340 343
313 314 313 315 315 316 315 315 314 314 315 316 316 315 315 314 313 313 313 314 314 314 314 313 314 315 316 317 316 335 336 335 332 338 342 343 341 340 340 340 337 337 328 341 339 332 341 342 342
313 313 316 315 319 319 317 316 316 315 315 316 316 315 314 313 312 312 311 311 313 312 311 313 313 313 314 315 317 317 326 342 327 338 340 342 343 341 342 341 340 340 330 337 339 341 341 343 341
314 314 313 315 316 318 318 316 315 315 315 314 314 313 312 312 311 311 310 310 311 311 311 311 312 313 313 314 315 316 317 326 333 338 333 338 342 339 343 342 342 340 334 337 342 342 342 340 334
313 314 314 318 318 319 319 318 315 314 314 313 311 309 309 309 309 308 308 308 309 309 309 310 310 311 311 313 315 315 317 317 330 336 335 333 342 343 341 341 340 339 340 338 342 341 331 330 329
Wind_Speed
5 3 1 1 3 2 1 2 1 2 7 8 12 6 5 3 4 5 10 7 16 28 32 31 27 27 25 22 19 17 17 17 18 18 16 16 18 18 20 19 18 16 15 14 14 13 11 11 13
2 2 3 1 3 5 3 2 3 3 7 15 7 7 6 3 7 11 12 8 16 29 32 31 28 27 25 23 20 19 17 17 18 19 18 18 19 19 20 19 17 15 14 14 13 11 11 11 13
1 5 2 2 3 8 4 3 4 5 4 10 7 5 7 10 18 12 17 8 16 30 31 31 29 27 25 23 21 19 18 18 18 19 19 19 19 19 20 19 17 15 14 13 12 11 11 12 14
4 3 4 4 10 3 2 3 7 6 3 9 10 3 5 15 24 22 17 7 15 30 31 29 28 26 25 23 21 19 19 18 19 19 19 19 19 20 21 19 17 15 14 13 11 11 12 12 14
4 3 2 3 4 2 2 2 3 4 4 6 9 8 7 17 29 23 11 7 15 30 31 29 27 25 24 23 21 20 19 19 20 20 20 20 20 20 20 19 17 15 13 12 11 11 12 13 13
2 1 3 7 4 2 3 4 1 8 8 9 11 15 1 16 27 31 11 9 17 28 30 30 28 26 24 23 22 21 19 19 20 21 22 21 21 20 20 20 18 16 13 12 12 12 12 13 13
1 1 2 2 2 3 2 4 8 8 11 5 14 9 6 18 25 25 17 6 13 25 29 30 29 27 25 23 22 21 20 20 21 22 23 22 21 21 20 20 18 16 14 12 12 12 12 12 12
3 2 5 3 3 2 3 5 3 8 6 15 8 4 7 19 21 20 21 8 12 22 28 30 31 30 28 26 23 22 21 19 19 21 22 22 21 21 20 20 18 17 14 13 13 13 12 12 11
4 2 4 3 3 1 4 8 4 6 8 5 9 12 12 15 14 14 14 11 11 19 27 29 31 31 30 28 27 24 22 20 19 21 22 21 22 22 20 21 19 17 15 14 14 13 12 11 10
1 2 4 1 4 5 10 6 10 6 7 7 11 10 11 13 13 11 9 10 9 17 27 28 32 32 31 30 29 28 26 25 23 23 25 25 24 23 22 21 20 18 17 16 15 14 13 11 10
2 1 3 4 5 7 6 9 4 7 8 9 10 17 16 16 13 13 12 10 10 12 21 30 32 33 33 33 32 31 30 29 28 26 26 27 27 26 24 23 21 21 19 18 16 15 14 13 11
1 2 3 1 9 7 11 11 10 13 13 12 17 18 19 17 14 13 13 13 12 12 15 22 30 33 35 35 35 34 33 32 31 29 28 29 30 29 28 26 23 22 20 18 17 16 16 15 13
2 1 4 9 12 11 11 14 18 15 18 17 16 14 12 13 11 11 12 11 11 14 15 17 25 33 35 37 37 37 36 34 33 31 30 31 31 31 29 26 24 23 21 19 19 19 18 16 15
3 6 10 9 10 6 6 7 4 8 8 12 13 10 15 17 15 16 14 13 12 13 16 19 23 25 34 37 40 40 38 37 36 34 33 32 32 31 29 27 25 24 21 20 20 21 20 18 15
4 6 6 3 5 5 1 11 8 13 17 18 14 19 18 18 20 21 20 19 16 15 18 20 21 24 29 36 42 43 42 41 40 37 36 34 33 32 29 28 27 25 22 21 21 21 22 20 17
4 2 6 4 9 7 4 14 8 10 17 21 22 23 21 21 21 23 23 22 20 18 18 23 22 24 25 28 39 45 44 43 42 39 37 36 35 31 30 30 29 26 24 23 23 23 22 21 19
3 9 14 9 10 7 11 21 14 19 25 21 22 24 25 26 28 30 26 28 26 22 19 23 25 26 26 24 25 39 45 43 44 42 40 38 34 32 32 31 30 27 26 24 25 24 21 21 20
15 15 12 17 13 18 22 28 21 21 21 23 25 26 28 29 30 30 31 28 28 25 22 18 27 27 28 29 30 33 42 46 47 44 43 39 35 34 33 32 31 29 28 27 27 26 22 20 18
10 12 17 17 16 17 20 28 29 23 23 25 28 30 28 29 28 26 26 22 24 28 25 20 19 24 30 33 35 36 39 41 47 47 45 43 38 35 35 34 33 31 30 29 29 26 24 22 19
8 14 18 16 12 14 19 33 26 19 23 29 27 24 24 24 23 22 26 26 21 23 27 25 20 22 27 32 36 38 40 40 43 48 46 45 40 37 37 34 34 33 30 30 31 29 26 24 21
11 15 18 21 16 13 14 27 18 14 21 17 19 23 22 22 20 20 20 22 20 24 24 25 22 24 25 25 32 34 34 35 38 43 46 46 42 41 37 35 34 33 31 32 31 30 28 25 25
18 12 9 15 14 8 10 14 17 13 6 5 10 15 17 15 13 12 13 12 16 21 24 27 26 21 22 23 27 34 38 40 41 41 44 48 45 43 39 37 35 34 35 34 30 29 27 28 28
7 8 9 14 18 19 14 10 4 10 18 20 13 11 10 9 9 10 10 7 7 10 17 21 23 23 26 25 26 29 35 34 33 35 37 47 48 44 40 38 35 36 36 36 34 30 25 27 28
7 9 19 13 7 6 4 12 5 5 9 11 12 12 15 15 9 4 5 3 3 5 8 12 20 24 27 28 27 28 30 33 30 32 33 40 48 45 42 40 37 39 38 37 35 30 27 26 27
7 13 5 3 3 5 0 9 16 17 20 19 19 24 21 14 7 7 8 7 5 7 4 7 10 18 25 29 30 30 28 30 33 34 34 37 44 46 44 43 43 41 41 36 33 32 28 27 28
16 5 4 6 5 15 16 9 3 8 11 17 18 13 5 8 8 8 10 9 10 11 10 9 9 12 14 24 31 31 31 29 30 32 32 34 39 44 43 44 43 42 41 38 34 32 28 29 29
2 5 2 8 13 9 7 10 12 16 12 4 3 5 9 12 13 13 14 14 13 16 16 16 16 14 13 16 22 30 33 32 31 31 34 34 41 42 42 40 40 41 40 38 33 32 35 33 31
13 3 4 3 5 9 11 20 14 12 11 4 6 12 18 19 21 21 20 20 19 19 21 22 20 20 18 19 21 23 31 35 35 32 33 35 39 44 42 43 41 40 42 42 38 38 36 35 31
3 4 6 3 5 6 11 10 5 12 14 11 11 19 23 26 30 28 27 26 23 22 21 22 24 25 24 24 24 26 28 30 34 33 34 34 39 34 44 38 38 38 45 44 39 40 39 36 30
15 14 13 5 7 7 10 22 19 4 9 15 21 28 32 32 33 33 31 29 26 25 23 22 25 27 26 26 26 29 31 30 29 33 34 33 37 39 41 40 37 36 44 43 41 39 41 30 21
Wind_Direction
289 274 226 201 223 265 223 150 351 24 320 336 309 261 274 331 310 346 317 257 201 187 181 181 182 179 180 178 190 190 189 186 183 182 178 170 164 163 163 161 159 157 160 159 159 155 150 149 144
300 184 157 149 226 238 243 215 168 85 310 324 319 287 303 296 14 325 341 214 196 189 183 182 184 182 182 187 193 193 193 191 186 182 179 175 169 167 166 165 161 159 163 163 161 153 149 152 147
119 154 171 208 192 239 249 165 67 327 330 347 337 4 359 349 340 339 325 268 196 190 186 184 186 186 186 191 193 194 193 192 189 184 179 176 173 171 170 169 166 163 163 162 163 157 156 159 152
133 117 70 231 224 201 63 87 328 339 15 24 345 48 10 21 352 344 330 247 201 191 189 187 187 190 190 192 195 194 192 193 191 187 182 179 177 176 174 173 173 172 168 166 165 163 164 165 157
137 109 160 220 244 298 300 323 346 10 19 357 1 348 317 358 2 355 345 197 202 193 191 188 189 194 195 195 197 197 195 193 191 188 185 183 181 180 179 179 182 182 179 174 173 171 172 171 168
90 107 191 234 218 261 281 334 321 14 352 340 2 342 97 2 2 3 342 215 204 197 193 190 191 197 200 199 200 199 197 195 192 189 187 185 184 184 183 186 189 189 188 181 181 179 179 176 178
118 147 227 176 223 249 127 10 47 4 333 344 337 324 318 351 358 359 346 247 210 198 198 194 193 197 202 204 204 203 202 199 195 192 189 187 188 188 188 192 194 193 190 188 186 187 187 182 186
109 108 161 219 207 251 75 19 359 352 320 314 331 333 324 343 345 352 355 293 216 205 198 200 199 197 200 202 206 208 206 205 201 196 193 191 192 191 193 197 197 194 192 190 192 193 193 190 191
121 180 189 197 201 53 17 347 341 324 285 309 301 302 307 324 338 343 349 331 233 212 203 203 205 205 203 204 204 206 211 210 206 200 199 197 196 195 197 199 197 196 194 194 197 197 197 193 191
70 225 184 25 355 324 325 322 321 315 303 289 305 303 316 320 328 328 324 332 278 239 213 209 211 213 209 209 211 207 207 207 207 206 201 201 202 200 200 200 200 199 196 196 197 197 197 194 187
123 184 167 151 352 326 306 302 309 282 281 291 296 308 311 312 316 313 314 305 302 269 238 220 215 215 215 213 213 212 212 209 209 209 208 206 204 203 203 204 202 201 198 196 198 196 193 187 178
255 128 182 304 323 308 298 301 285 272 281 279 295 295 298 305 300 302 299 297 294 290 263 244 236 225 218 217 218 217 215 215 214 213 211 210 208 207 206 205 205 203 202 199 197 195 189 179 176
188 12 277 304 292 281 284 277 285 282 277 274 279 285 288 299 304 310 296 285 295 287 262 257 248 241 232 224 223 222 221 222 220 218 216 216 216 213 210 209 207 206 204 200 198 194 189 186 185
189 275 293 291 301 271 281 302 302 281 309 308 294 280 303 298 300 305 307 298 287 280 261 264 263 251 236 233 232 230 226 225 222 221 223 221 221 221 216 214 212 209 207 203 200 198 194 192 193
266 282 308 166 344 288 263 270 249 274 313 306 292 298 294 291 297 298 300 297 303 294 265 252 255 251 243 240 238 234 232 229 227 225 224 226 227 225 221 219 216 214 210 206 203 199 199 200 202
287 183 337 327 315 324 304 290 277 284 307 295 288 292 292 284 286 290 291 289 289 290 281 250 240 251 246 246 239 236 234 234 232 227 228 230 230 229 225 222 219 216 214 208 205 201 203 205 207
42 324 321 327 308 308 303 297 287 276 283 271 280 283 284 281 279 283 282 281 280 278 287 259 238 245 243 240 239 236 237 236 235 230 230 231 232 230 228 225 222 219 216 212 207 202 205 211 214
313 318 310 311 322 311 304 291 286 290 280 275 276 274 274 272 272 283 286 278 270 270 272 287 247 242 242 241 235 235 237 236 235 232 232 233 233 230 228 227 223 220 219 215 208 205 210 212 216
295 294 299 303 310 297 302 293 290 295 279 269 264 259 265 269 276 280 285 280 261 254 258 272 276 252 239 234 231 233 233 237 236 232 230 233 233 231 230 225 223 220 221 217 212 210 211 216 219
269 291 298 303 319 308 302 289 299 294 273 267 266 262 259 270 279 284 286 283 267 252 243 250 269 262 248 241 240 239 237 234 238 235 227 227 230 233 231 227 223 220 219 216 212 212 213 218 221
275 285 299 301 314 295 305 291 299 310 281 276 265 255 261 261 275 289 294 283 268 251 247 250 250 260 259 251 243 236 231 230 229 236 229 226 223 230 230 228 225 220 216 212 211 216 221 225 220
289 303 296 300 320 306 4 291 326 313 306 258 266 253 267 271 281 301 325 293 273 251 248 246 246 250 252 259 246 233 232 226 232 236 232 225 221 223 225 226 224 219 214 211 215 224 232 229 223
294 327 304 294 285 295 276 257 312 287 290 295 306 302 256 295 309 333 347 347 310 272 262 255 244 246 244 249 253 246 238 238 242 238 239 226 223 222 224 225 223 220 219 215 218 224 228 224 227
329 321 300 290 281 257 298 228 283 300 305 298 303 293 303 301 315 336 358 28 301 284 266 261 236 230 235 239 244 247 246 240 232 238 239 229 225 221 222 225 223 221 218 217 223 224 225 229 236
333 335 306 274 219 271 197 289 263 285 284 288 299 305 317 314 328 355 9 8 343 342 319 261 257 247 235 231 239 247 248 245 246 249 243 233 224 222 223 222 222 220 218 217 221 229 226 229 239
303 263 272 290 292 299 304 255 254 268 291 300 308 308 7 25 19 14 3 355 344 331 317 306 288 263 256 248 235 239 246 244 246 245 245 240 227 227 230 221 222 221 215 215 216 224 231 229 228
84 229 335 279 269 280 238 258 264 264 279 295 348 0 344 337 332 332 331 329 326 318 312 301 290 281 272 260 256 243 241 242 243 241 245 245 235 231 231 221 219 220 217 216 215 223 226 222 221
238 349 261 224 292 294 279 290 285 290 297 292 315 321 320 315 314 315 315 312 307 304 297 292 290 285 275 272 263 260 245 239 242 242 244 244 242 235 232 223 217 217 212 216 217 216 217 219 217
197 233 226 294 262 278 295 290 328 296 310 315 318 317 315 308 304 302 299 300 294 295 293 289 281 280 275 271 269 262 259 250 244 239 241 242 242 234 235 223 217 224 217 217 220 215 209 204 199
253 259 251 248 251 236 273 279 282 289 325 313 309 303 299 298 299 298 297 296 287 286 283 281 283 278 276 269 267 264 256 257 247 240 238 237 236 230 230 233 235 237 217 217 221 212 188 185 189